Year,Month,Day,Hour,Minute,Value (Times are PST for temperature in C)
2014,07,02,00,00,20.70
2014,07,02,00,01,20.70
2014,07,02,00,02,20.70
2014,07,02,00,03,20.70
2014,07,02,00,04,20.70
2014,07,02,00,05,20.60
2014,07,02,00,06,20.60
2014,07,02,00,07,20.60
2014,07,02,00,08,20.60
2014,07,02,00,09,20.60
2014,07,02,00,10,20.60
2014,07,02,00,11,20.60
2014,07,02,00,12,20.50
2014,07,02,00,13,20.50
2014,07,02,00,14,20.50
2014,07,02,00,15,20.40
2014,07,02,00,16,20.40
2014,07,02,00,17,20.40
2014,07,02,00,18,20.40
2014,07,02,00,19,20.40
2014,07,02,00,20,20.40
2014,07,02,00,21,20.40
2014,07,02,00,22,20.40
2014,07,02,00,23,20.40
2014,07,02,00,24,20.40
2014,07,02,00,25,20.40
2014,07,02,00,26,20.30
2014,07,02,00,27,20.30
2014,07,02,00,28,20.30
2014,07,02,00,29,20.30
2014,07,02,00,30,20.30
2014,07,02,00,31,20.30
2014,07,02,00,32,20.30
2014,07,02,00,33,20.30
2014,07,02,00,34,20.30
2014,07,02,00,35,20.30
2014,07,02,00,36,20.20
2014,07,02,00,37,20.20
2014,07,02,00,38,20.20
2014,07,02,00,39,20.20
2014,07,02,00,40,20.20
2014,07,02,00,41,20.10
2014,07,02,00,42,20.10
2014,07,02,00,43,20.10
2014,07,02,00,44,20.10
2014,07,02,00,45,20.10
2014,07,02,00,46,20.00
2014,07,02,00,47,20.00
2014,07,02,00,48,20.00
2014,07,02,00,49,20.00
2014,07,02,00,50,19.90
2014,07,02,00,51,19.90
2014,07,02,00,52,19.90
2014,07,02,00,53,19.90
2014,07,02,00,54,19.80
2014,07,02,00,55,19.80
2014,07,02,00,56,19.80
2014,07,02,00,57,19.80
2014,07,02,00,58,19.80
2014,07,02,00,59,19.70
2014,07,02,01,00,19.70
2014,07,02,01,01,19.70
2014,07,02,01,02,19.70
2014,07,02,01,03,19.60
2014,07,02,01,04,19.60
2014,07,02,01,05,19.60
2014,07,02,01,06,19.60
2014,07,02,01,07,19.50
2014,07,02,01,08,19.50
2014,07,02,01,09,19.50
2014,07,02,01,10,19.40
2014,07,02,01,11,19.40
2014,07,02,01,12,19.40
2014,07,02,01,13,19.30
2014,07,02,01,14,19.30
2014,07,02,01,15,19.30
2014,07,02,01,16,19.30
2014,07,02,01,17,19.30
2014,07,02,01,18,19.30
2014,07,02,01,19,19.30
2014,07,02,01,20,19.30
2014,07,02,01,21,19.30
2014,07,02,01,22,19.30
2014,07,02,01,23,19.30
2014,07,02,01,24,19.30
2014,07,02,01,25,19.30
2014,07,02,01,26,19.30
2014,07,02,01,27,19.30
2014,07,02,01,28,19.30
2014,07,02,01,29,19.30
2014,07,02,01,30,19.40
2014,07,02,01,31,19.40
2014,07,02,01,32,19.40
2014,07,02,01,33,19.40
2014,07,02,01,34,19.40
2014,07,02,01,35,19.40
2014,07,02,01,36,19.50
2014,07,02,01,37,19.40
2014,07,02,01,38,19.40
2014,07,02,01,39,19.40
2014,07,02,01,40,19.40
2014,07,02,01,41,19.40
2014,07,02,01,42,19.40
2014,07,02,01,43,19.40
2014,07,02,01,44,19.40
2014,07,02,01,45,19.40
2014,07,02,01,46,19.30
2014,07,02,01,47,19.30
2014,07,02,01,48,19.30
2014,07,02,01,49,19.30
2014,07,02,01,50,19.30
2014,07,02,01,51,19.20
2014,07,02,01,52,19.20
2014,07,02,01,53,19.20
2014,07,02,01,54,19.10
2014,07,02,01,55,19.10
2014,07,02,01,56,19.00
2014,07,02,01,57,19.00
2014,07,02,01,58,19.00
2014,07,02,01,59,18.90
2014,07,02,02,00,18.90
2014,07,02,02,01,18.90
2014,07,02,02,02,18.80
2014,07,02,02,03,18.80
2014,07,02,02,04,18.80
2014,07,02,02,05,18.80
2014,07,02,02,06,18.70
2014,07,02,02,07,18.70
2014,07,02,02,08,18.70
2014,07,02,02,09,18.60
2014,07,02,02,10,18.60
2014,07,02,02,11,18.60
2014,07,02,02,12,18.50
2014,07,02,02,13,18.50
2014,07,02,02,14,18.40
2014,07,02,02,15,18.40
2014,07,02,02,16,18.40
2014,07,02,02,17,18.30
2014,07,02,02,18,18.30
2014,07,02,02,19,18.30
2014,07,02,02,20,18.30
2014,07,02,02,21,18.30
2014,07,02,02,22,18.30
2014,07,02,02,23,18.20
2014,07,02,02,24,18.20
2014,07,02,02,25,18.20
2014,07,02,02,26,18.20
2014,07,02,02,27,18.20
2014,07,02,02,28,18.20
2014,07,02,02,29,18.20
2014,07,02,02,30,18.20
2014,07,02,02,31,18.20
2014,07,02,02,32,18.20
2014,07,02,02,33,18.20
2014,07,02,02,34,18.20
2014,07,02,02,35,18.20
2014,07,02,02,36,18.20
2014,07,02,02,37,18.10
2014,07,02,02,38,18.10
2014,07,02,02,39,18.10
2014,07,02,02,40,18.10
2014,07,02,02,41,18.10
2014,07,02,02,42,18.10
2014,07,02,02,43,18.10
2014,07,02,02,44,18.10
2014,07,02,02,45,18.10
2014,07,02,02,46,18.00
2014,07,02,02,47,18.00
2014,07,02,02,48,18.00
2014,07,02,02,49,17.90
2014,07,02,02,50,17.90
2014,07,02,02,51,17.90
2014,07,02,02,52,17.80
2014,07,02,02,53,17.80
2014,07,02,02,54,17.80
2014,07,02,02,55,17.80
2014,07,02,02,56,17.80
2014,07,02,02,57,17.70
2014,07,02,02,58,17.70
2014,07,02,02,59,17.70
2014,07,02,03,00,17.70
2014,07,02,03,01,17.60
2014,07,02,03,02,17.60
2014,07,02,03,03,17.60
2014,07,02,03,04,17.50
2014,07,02,03,05,17.50
2014,07,02,03,06,17.40
2014,07,02,03,07,17.40
2014,07,02,03,08,17.40
2014,07,02,03,09,17.40
2014,07,02,03,10,17.40
2014,07,02,03,11,17.30
2014,07,02,03,12,17.30
2014,07,02,03,13,17.30
2014,07,02,03,14,17.30
2014,07,02,03,15,17.20
2014,07,02,03,16,17.20
2014,07,02,03,17,17.20
2014,07,02,03,18,17.20
2014,07,02,03,19,17.10
2014,07,02,03,20,17.10
2014,07,02,03,21,17.10
2014,07,02,03,22,17.00
2014,07,02,03,23,17.00
2014,07,02,03,24,16.90
2014,07,02,03,25,16.90
2014,07,02,03,26,16.90
2014,07,02,03,27,16.80
2014,07,02,03,28,16.80
2014,07,02,03,29,16.80
2014,07,02,03,30,16.80
2014,07,02,03,31,16.80
2014,07,02,03,32,16.80
2014,07,02,03,33,16.70
2014,07,02,03,34,16.70
2014,07,02,03,35,16.70
2014,07,02,03,36,16.70
2014,07,02,03,37,16.70
2014,07,02,03,38,16.70
2014,07,02,03,39,16.70
2014,07,02,03,40,16.60
2014,07,02,03,41,16.60
2014,07,02,03,42,16.60
2014,07,02,03,43,16.60
2014,07,02,03,44,16.60
2014,07,02,03,45,16.60
2014,07,02,03,46,16.60
2014,07,02,03,47,16.60
2014,07,02,03,48,16.60
2014,07,02,03,49,16.60
2014,07,02,03,50,16.60
2014,07,02,03,51,16.60
2014,07,02,03,52,16.70
2014,07,02,03,53,16.70
2014,07,02,03,54,16.80
2014,07,02,03,55,16.90
2014,07,02,03,56,16.90
2014,07,02,03,57,17.00
2014,07,02,03,58,17.00
2014,07,02,03,59,17.10
2014,07,02,04,00,17.20
2014,07,02,04,01,17.20
2014,07,02,04,02,17.30
2014,07,02,04,03,17.30
2014,07,02,04,04,17.30
2014,07,02,04,05,17.40
2014,07,02,04,06,17.40
2014,07,02,04,07,17.40
2014,07,02,04,08,17.40
2014,07,02,04,09,17.40
2014,07,02,04,10,17.40
2014,07,02,04,11,17.40
2014,07,02,04,12,17.40
2014,07,02,04,13,17.40
2014,07,02,04,14,17.40
2014,07,02,04,15,17.40
2014,07,02,04,16,17.40
2014,07,02,04,17,17.40
2014,07,02,04,18,17.40
2014,07,02,04,19,17.40
2014,07,02,04,20,17.40
2014,07,02,04,21,17.40
2014,07,02,04,22,17.40
2014,07,02,04,23,17.40
2014,07,02,04,24,17.30
2014,07,02,04,25,17.40
2014,07,02,04,26,17.40
2014,07,02,04,27,17.40
2014,07,02,04,28,17.50
2014,07,02,04,29,17.50
2014,07,02,04,30,17.60
2014,07,02,04,31,17.60
2014,07,02,04,32,17.70
2014,07,02,04,33,17.70
2014,07,02,04,34,17.80
2014,07,02,04,35,17.80
2014,07,02,04,36,17.90
2014,07,02,04,37,17.90
2014,07,02,04,38,17.90
2014,07,02,04,39,18.00
2014,07,02,04,40,18.10
2014,07,02,04,41,18.10
2014,07,02,04,42,18.10
2014,07,02,04,43,18.10
2014,07,02,04,44,18.20
2014,07,02,04,45,18.20
2014,07,02,04,46,18.20
2014,07,02,04,47,18.20
2014,07,02,04,48,18.20
2014,07,02,04,49,18.20
2014,07,02,04,50,18.20
2014,07,02,04,51,18.20
2014,07,02,04,52,18.10
2014,07,02,04,53,18.10
2014,07,02,04,54,18.10
2014,07,02,04,55,18.10
2014,07,02,04,56,18.10
2014,07,02,04,57,18.10
2014,07,02,04,58,18.10
2014,07,02,04,59,18.10
2014,07,02,05,00,18.20
2014,07,02,05,01,18.20
2014,07,02,05,02,18.20
2014,07,02,05,03,18.20
2014,07,02,05,04,18.20
2014,07,02,05,05,18.20
2014,07,02,05,06,18.30
2014,07,02,05,07,18.30
2014,07,02,05,08,18.30
2014,07,02,05,09,18.40
2014,07,02,05,10,18.40
2014,07,02,05,11,18.50
2014,07,02,05,12,18.50
2014,07,02,05,13,18.60
2014,07,02,05,14,18.60
2014,07,02,05,15,18.70
2014,07,02,05,16,18.70
2014,07,02,05,17,18.80
2014,07,02,05,18,18.80
2014,07,02,05,19,18.80
2014,07,02,05,20,18.90
2014,07,02,05,21,18.90
2014,07,02,05,22,18.90
2014,07,02,05,23,18.90
2014,07,02,05,24,18.90
2014,07,02,05,25,18.90
2014,07,02,05,26,19.00
2014,07,02,05,27,19.00
2014,07,02,05,28,19.10
2014,07,02,05,29,19.10
2014,07,02,05,30,19.20
2014,07,02,05,31,19.20
2014,07,02,05,32,19.30
2014,07,02,05,33,19.40
2014,07,02,05,34,19.40
2014,07,02,05,35,19.50
2014,07,02,05,36,19.50
2014,07,02,05,37,19.60
2014,07,02,05,38,19.70
2014,07,02,05,39,19.70
2014,07,02,05,40,19.80
2014,07,02,05,41,19.80
2014,07,02,05,42,19.80
2014,07,02,05,43,19.90
2014,07,02,05,44,19.90
2014,07,02,05,45,20.00
2014,07,02,05,46,20.10
2014,07,02,05,47,20.20
2014,07,02,05,48,20.20
2014,07,02,05,49,20.20
2014,07,02,05,50,20.20
2014,07,02,05,51,20.20
2014,07,02,05,52,20.20
2014,07,02,05,53,20.20
2014,07,02,05,54,20.30
2014,07,02,05,55,20.30
2014,07,02,05,56,20.30
2014,07,02,05,57,20.30
2014,07,02,05,58,20.30
2014,07,02,05,59,20.30
2014,07,02,06,00,20.30
2014,07,02,06,01,20.20
2014,07,02,06,02,20.20
2014,07,02,06,03,20.10
2014,07,02,06,04,20.10
2014,07,02,06,05,20.00
2014,07,02,06,06,19.90
2014,07,02,06,07,19.90
2014,07,02,06,08,19.80
2014,07,02,06,09,19.80
2014,07,02,06,10,19.80
2014,07,02,06,11,19.80
2014,07,02,06,12,19.70
2014,07,02,06,13,19.70
2014,07,02,06,14,19.70
2014,07,02,06,15,19.70
2014,07,02,06,16,19.80
2014,07,02,06,17,19.80
2014,07,02,06,18,19.80
2014,07,02,06,19,19.80
2014,07,02,06,20,19.80
2014,07,02,06,21,19.80
2014,07,02,06,22,19.80
2014,07,02,06,23,19.90
2014,07,02,06,24,19.90
2014,07,02,06,25,19.90
2014,07,02,06,26,19.90
2014,07,02,06,27,19.90
2014,07,02,06,28,19.90
2014,07,02,06,29,19.80
2014,07,02,06,30,19.80
2014,07,02,06,31,19.80
2014,07,02,06,32,19.80
2014,07,02,06,33,19.80
2014,07,02,06,34,19.80
2014,07,02,06,35,19.80
2014,07,02,06,36,19.80
2014,07,02,06,37,19.80
2014,07,02,06,38,19.90
2014,07,02,06,39,19.90
2014,07,02,06,40,19.90
2014,07,02,06,41,19.90
2014,07,02,06,42,19.90
2014,07,02,06,43,19.90
2014,07,02,06,44,19.80
2014,07,02,06,45,19.80
2014,07,02,06,46,19.80
2014,07,02,06,47,19.80
2014,07,02,06,48,19.80
2014,07,02,06,49,19.80
2014,07,02,06,50,19.80
2014,07,02,06,51,19.80
2014,07,02,06,52,19.80
2014,07,02,06,53,19.80
2014,07,02,06,54,19.80
2014,07,02,06,55,19.90
2014,07,02,06,56,19.90
2014,07,02,06,57,19.90
2014,07,02,06,58,19.90
2014,07,02,06,59,19.90
2014,07,02,07,00,20.00
2014,07,02,07,01,20.00
2014,07,02,07,02,20.00
2014,07,02,07,03,20.10
2014,07,02,07,04,20.10
2014,07,02,07,05,20.10
2014,07,02,07,06,20.10
2014,07,02,07,07,20.10
2014,07,02,07,08,20.20
2014,07,02,07,09,20.20
2014,07,02,07,10,20.20
2014,07,02,07,11,20.20
2014,07,02,07,12,20.20
2014,07,02,07,13,20.20
2014,07,02,07,14,20.20
2014,07,02,07,15,20.20
2014,07,02,07,16,20.20
2014,07,02,07,17,20.20
2014,07,02,07,18,20.10
2014,07,02,07,19,20.10
2014,07,02,07,20,20.20
2014,07,02,07,21,20.20
2014,07,02,07,22,20.30
2014,07,02,07,23,20.30
2014,07,02,07,24,20.30
2014,07,02,07,25,20.30
2014,07,02,07,26,20.40
2014,07,02,07,27,20.40
2014,07,02,07,28,20.40
2014,07,02,07,29,20.40
2014,07,02,07,30,20.40
2014,07,02,07,31,20.40
2014,07,02,07,32,20.30
2014,07,02,07,33,20.30
2014,07,02,07,34,20.30
2014,07,02,07,35,20.30
2014,07,02,07,36,20.30
2014,07,02,07,37,20.20
2014,07,02,07,38,20.20
2014,07,02,07,39,20.10
2014,07,02,07,40,20.10
2014,07,02,07,41,20.00
2014,07,02,07,42,20.00
2014,07,02,07,43,19.90
2014,07,02,07,44,19.80
2014,07,02,07,45,19.80
2014,07,02,07,46,19.70
2014,07,02,07,47,19.70
2014,07,02,07,48,19.60
2014,07,02,07,49,19.60
2014,07,02,07,50,19.60
2014,07,02,07,51,19.50
2014,07,02,07,52,19.40
2014,07,02,07,53,19.40
2014,07,02,07,54,19.30
2014,07,02,07,55,19.30
2014,07,02,07,56,19.20
2014,07,02,07,57,19.20
2014,07,02,07,58,19.20
2014,07,02,07,59,19.20
2014,07,02,08,00,19.20
2014,07,02,08,01,19.20
2014,07,02,08,02,19.20
2014,07,02,08,03,19.10
2014,07,02,08,04,19.10
2014,07,02,08,05,19.10
2014,07,02,08,06,19.10
2014,07,02,08,07,19.10
2014,07,02,08,08,19.00
2014,07,02,08,09,19.00
2014,07,02,08,10,19.00
2014,07,02,08,11,19.00
2014,07,02,08,12,19.10
2014,07,02,08,13,19.10
2014,07,02,08,14,19.10
2014,07,02,08,15,19.10
2014,07,02,08,16,19.10
2014,07,02,08,17,19.10
2014,07,02,08,18,19.10
2014,07,02,08,19,19.10
2014,07,02,08,20,19.10
2014,07,02,08,21,19.00
2014,07,02,08,22,19.00
2014,07,02,08,23,18.90
2014,07,02,08,24,18.90
2014,07,02,08,25,18.90
2014,07,02,08,26,18.90
2014,07,02,08,27,18.90
2014,07,02,08,28,18.90
2014,07,02,08,29,18.90
2014,07,02,08,30,18.90
2014,07,02,08,31,18.90
2014,07,02,08,32,19.00
2014,07,02,08,33,19.00
2014,07,02,08,34,19.10
2014,07,02,08,35,19.20
2014,07,02,08,36,19.30
2014,07,02,08,37,19.30
2014,07,02,08,38,19.50
2014,07,02,08,39,19.50
2014,07,02,08,40,19.60
2014,07,02,08,41,19.70
2014,07,02,08,42,19.70
2014,07,02,08,43,19.80
2014,07,02,08,44,19.80
2014,07,02,08,45,19.80
2014,07,02,08,46,19.80
2014,07,02,08,47,19.80
2014,07,02,08,48,19.80
2014,07,02,08,49,19.80
2014,07,02,08,50,19.80
2014,07,02,08,51,19.80
2014,07,02,08,52,19.80
2014,07,02,08,53,19.80
2014,07,02,08,54,19.80
2014,07,02,08,55,19.80
2014,07,02,08,56,19.90
2014,07,02,08,57,19.90
2014,07,02,08,58,20.00
2014,07,02,08,59,20.10
2014,07,02,09,00,20.10
2014,07,02,09,01,20.20
2014,07,02,09,02,20.30
2014,07,02,09,03,20.40
2014,07,02,09,04,20.50
2014,07,02,09,05,20.60
2014,07,02,09,06,20.70
2014,07,02,09,07,20.70
2014,07,02,09,08,20.80
2014,07,02,09,09,20.90
2014,07,02,09,10,21.00
2014,07,02,09,11,21.00
2014,07,02,09,12,21.10
2014,07,02,09,13,21.10
2014,07,02,09,14,21.10
2014,07,02,09,15,21.20
2014,07,02,09,16,21.20
2014,07,02,09,17,21.20
2014,07,02,09,18,21.20
2014,07,02,09,19,21.30
2014,07,02,09,20,21.30
2014,07,02,09,21,21.30
2014,07,02,09,22,21.30
2014,07,02,09,23,21.20
2014,07,02,09,24,21.20
2014,07,02,09,25,21.20
2014,07,02,09,26,21.10
2014,07,02,09,27,21.00
2014,07,02,09,28,21.00
2014,07,02,09,29,20.90
2014,07,02,09,30,20.90
2014,07,02,09,31,20.90
2014,07,02,09,32,20.90
2014,07,02,09,33,20.90
2014,07,02,09,34,20.90
2014,07,02,09,35,20.90
2014,07,02,09,36,20.90
2014,07,02,09,37,20.90
2014,07,02,09,38,20.90
2014,07,02,09,39,20.90
2014,07,02,09,40,21.00
2014,07,02,09,41,21.00
2014,07,02,09,42,21.00
2014,07,02,09,43,21.00
2014,07,02,09,44,21.00
2014,07,02,09,45,20.90
2014,07,02,09,46,20.90
2014,07,02,09,47,20.90
2014,07,02,09,48,20.90
2014,07,02,09,49,20.90
2014,07,02,09,50,21.00
2014,07,02,09,51,21.00
2014,07,02,09,52,21.10
2014,07,02,09,53,21.10
2014,07,02,09,54,21.10
2014,07,02,09,55,21.10
2014,07,02,09,56,21.20
2014,07,02,09,57,21.20
2014,07,02,09,58,21.30
2014,07,02,09,59,21.40
2014,07,02,10,00,21.40
2014,07,02,10,01,21.50
2014,07,02,10,02,21.50
2014,07,02,10,03,21.50
2014,07,02,10,04,21.60
2014,07,02,10,05,21.60
2014,07,02,10,06,21.70
2014,07,02,10,07,21.80
2014,07,02,10,08,21.80
2014,07,02,10,09,21.90
2014,07,02,10,10,21.90
2014,07,02,10,11,21.90
2014,07,02,10,12,21.90
2014,07,02,10,13,21.90
2014,07,02,10,14,22.00
2014,07,02,10,15,22.00
2014,07,02,10,16,22.00
2014,07,02,10,17,22.00
2014,07,02,10,18,22.00
2014,07,02,10,19,22.00
2014,07,02,10,20,22.10
2014,07,02,10,21,22.10
2014,07,02,10,22,22.20
2014,07,02,10,23,22.20
2014,07,02,10,24,22.20
2014,07,02,10,25,22.30
2014,07,02,10,26,22.40
2014,07,02,10,27,22.50
2014,07,02,10,28,22.60
2014,07,02,10,29,22.70
2014,07,02,10,30,22.80
2014,07,02,10,31,22.80
2014,07,02,10,32,22.90
2014,07,02,10,33,23.00
2014,07,02,10,34,23.00
2014,07,02,10,35,23.10
2014,07,02,10,36,23.10
2014,07,02,10,37,23.20
2014,07,02,10,38,23.20
2014,07,02,10,39,23.20
2014,07,02,10,40,23.30
2014,07,02,10,41,23.50
2014,07,02,10,42,23.60
2014,07,02,10,43,23.60
2014,07,02,10,44,23.70
2014,07,02,10,45,23.70
2014,07,02,10,46,23.80
2014,07,02,10,47,23.80
2014,07,02,10,48,23.80
2014,07,02,10,49,23.80
2014,07,02,10,50,23.90
2014,07,02,10,51,24.00
2014,07,02,10,52,24.10
2014,07,02,10,53,24.20
2014,07,02,10,54,24.30
2014,07,02,10,55,24.30
2014,07,02,10,56,24.40
2014,07,02,10,57,24.40
2014,07,02,10,58,24.40
2014,07,02,10,59,24.40
2014,07,02,11,00,24.40
2014,07,02,11,01,24.40
2014,07,02,11,02,24.40
2014,07,02,11,03,24.40
2014,07,02,11,04,24.40
2014,07,02,11,05,24.40
2014,07,02,11,06,24.40
2014,07,02,11,07,24.30
2014,07,02,11,08,24.30
2014,07,02,11,09,24.30
2014,07,02,11,10,24.40
2014,07,02,11,11,24.50
2014,07,02,11,12,24.60
2014,07,02,11,13,24.60
2014,07,02,11,14,24.60
2014,07,02,11,15,24.60
2014,07,02,11,16,24.50
2014,07,02,11,17,24.50
2014,07,02,11,18,24.50
2014,07,02,11,19,24.50
2014,07,02,11,20,24.50
2014,07,02,11,21,24.50
2014,07,02,11,22,24.50
2014,07,02,11,23,24.50
2014,07,02,11,24,24.40
2014,07,02,11,25,24.40
2014,07,02,11,26,24.40
2014,07,02,11,27,24.40
2014,07,02,11,28,24.40
2014,07,02,11,29,24.50
2014,07,02,11,30,24.50
2014,07,02,11,31,24.40
2014,07,02,11,32,24.40
2014,07,02,11,33,24.40
2014,07,02,11,34,24.40
2014,07,02,11,35,24.50
2014,07,02,11,36,24.50
2014,07,02,11,37,24.50
2014,07,02,11,38,24.40
2014,07,02,11,39,24.40
2014,07,02,11,40,24.40
2014,07,02,11,41,24.40
2014,07,02,11,42,24.50
2014,07,02,11,43,24.50
2014,07,02,11,44,24.50
2014,07,02,11,45,24.40
2014,07,02,11,46,24.40
2014,07,02,11,47,24.50
2014,07,02,11,48,24.50
2014,07,02,11,49,24.50
2014,07,02,11,50,24.50
2014,07,02,11,51,24.50
2014,07,02,11,52,24.50
2014,07,02,11,53,24.50
2014,07,02,11,54,24.60
2014,07,02,11,55,24.60
2014,07,02,11,56,24.50
2014,07,02,11,57,24.40
2014,07,02,11,58,24.30
2014,07,02,11,59,24.30
2014,07,02,12,00,24.30
2014,07,02,12,01,24.40
2014,07,02,12,02,24.40
2014,07,02,12,03,24.50
2014,07,02,12,04,24.60
2014,07,02,12,05,24.70
2014,07,02,12,06,24.70
2014,07,02,12,07,24.70
2014,07,02,12,08,24.70
2014,07,02,12,09,24.70
2014,07,02,12,10,24.70
2014,07,02,12,11,24.80
2014,07,02,12,12,24.90
2014,07,02,12,13,24.90
2014,07,02,12,14,25.00
2014,07,02,12,15,25.10
2014,07,02,12,16,25.10
2014,07,02,12,17,25.10
2014,07,02,12,18,25.00
2014,07,02,12,19,25.00
2014,07,02,12,20,25.00
2014,07,02,12,21,25.10
2014,07,02,12,22,25.10
2014,07,02,12,23,25.10
2014,07,02,12,24,25.10
2014,07,02,12,25,25.10
2014,07,02,12,26,25.10
2014,07,02,12,27,25.10
2014,07,02,12,28,25.10
2014,07,02,12,29,25.10
2014,07,02,12,30,25.10
2014,07,02,12,31,25.20
2014,07,02,12,32,25.20
2014,07,02,12,33,25.20
2014,07,02,12,34,25.30
2014,07,02,12,35,25.30
2014,07,02,12,36,25.40
2014,07,02,12,37,25.40
2014,07,02,12,38,25.40
2014,07,02,12,39,25.20
2014,07,02,12,40,25.10
2014,07,02,12,41,25.00
2014,07,02,12,42,24.90
2014,07,02,12,43,24.90
2014,07,02,12,44,24.90
2014,07,02,12,45,24.90
2014,07,02,12,46,24.90
2014,07,02,12,47,24.90
2014,07,02,12,48,24.80
2014,07,02,12,49,24.80
2014,07,02,12,50,24.90
2014,07,02,12,51,24.90
2014,07,02,12,52,25.00
2014,07,02,12,53,25.00
2014,07,02,12,54,25.10
2014,07,02,12,55,25.10
2014,07,02,12,56,25.10
2014,07,02,12,57,25.20
2014,07,02,12,58,25.20
2014,07,02,12,59,25.30
2014,07,02,13,00,25.30
2014,07,02,13,01,25.40
2014,07,02,13,02,25.40
2014,07,02,13,03,25.40
2014,07,02,13,04,25.40
2014,07,02,13,05,25.40
2014,07,02,13,06,25.50
2014,07,02,13,07,25.60
2014,07,02,13,08,25.50
2014,07,02,13,09,25.30
2014,07,02,13,10,25.20
2014,07,02,13,11,25.10
2014,07,02,13,12,25.00
2014,07,02,13,13,24.80
2014,07,02,13,14,24.70
2014,07,02,13,15,24.60
2014,07,02,13,16,24.50
2014,07,02,13,17,24.40
2014,07,02,13,18,24.40
2014,07,02,13,19,24.50
2014,07,02,13,20,24.50
2014,07,02,13,21,24.60
2014,07,02,13,22,24.60
2014,07,02,13,23,24.60
2014,07,02,13,24,24.50
2014,07,02,13,25,24.50
2014,07,02,13,26,24.40
2014,07,02,13,27,24.50
2014,07,02,13,28,24.60
2014,07,02,13,29,24.60
2014,07,02,13,30,24.70
2014,07,02,13,31,24.90
2014,07,02,13,32,25.00
2014,07,02,13,33,25.20
2014,07,02,13,34,25.30
2014,07,02,13,35,25.30
2014,07,02,13,36,25.10
2014,07,02,13,37,25.10
2014,07,02,13,38,25.10
2014,07,02,13,39,25.00
2014,07,02,13,40,24.90
2014,07,02,13,41,24.90
2014,07,02,13,42,25.00
2014,07,02,13,43,25.00
2014,07,02,13,44,25.00
2014,07,02,13,45,25.00
2014,07,02,13,46,25.00
2014,07,02,13,47,24.90
2014,07,02,13,48,24.90
2014,07,02,13,49,24.90
2014,07,02,13,50,24.80
2014,07,02,13,51,24.80
2014,07,02,13,52,24.80
2014,07,02,13,53,24.70
2014,07,02,13,54,24.70
2014,07,02,13,55,24.60
2014,07,02,13,56,24.60
2014,07,02,13,57,24.60
2014,07,02,13,58,24.70
2014,07,02,13,59,24.80
2014,07,02,14,00,24.80
2014,07,02,14,01,24.80
2014,07,02,14,02,24.70
2014,07,02,14,03,24.70
2014,07,02,14,04,24.90
2014,07,02,14,05,25.10
2014,07,02,14,06,25.20
2014,07,02,14,07,25.30
2014,07,02,14,08,25.40
2014,07,02,14,09,25.40
2014,07,02,14,10,25.40
2014,07,02,14,11,25.40
2014,07,02,14,12,25.40
2014,07,02,14,13,25.30
2014,07,02,14,14,25.30
2014,07,02,14,15,25.20
2014,07,02,14,16,25.10
2014,07,02,14,17,25.00
2014,07,02,14,18,25.00
2014,07,02,14,19,25.00
2014,07,02,14,20,25.00
2014,07,02,14,21,24.80
2014,07,02,14,22,24.80
2014,07,02,14,23,24.70
2014,07,02,14,24,24.80
2014,07,02,14,25,24.80
2014,07,02,14,26,24.80
2014,07,02,14,27,24.80
2014,07,02,14,28,24.90
2014,07,02,14,29,24.80
2014,07,02,14,30,24.80
2014,07,02,14,31,24.70
2014,07,02,14,32,24.60
2014,07,02,14,33,24.60
2014,07,02,14,34,24.60
2014,07,02,14,35,24.70
2014,07,02,14,36,24.70
2014,07,02,14,37,24.60
2014,07,02,14,38,24.60
2014,07,02,14,39,24.60
2014,07,02,14,40,24.50
2014,07,02,14,41,24.50
2014,07,02,14,42,24.50
2014,07,02,14,43,24.60
2014,07,02,14,44,24.50
2014,07,02,14,45,24.60
2014,07,02,14,46,24.60
2014,07,02,14,47,24.60
2014,07,02,14,48,24.60
2014,07,02,14,49,24.50
2014,07,02,14,50,24.50
2014,07,02,14,51,24.50
2014,07,02,14,52,24.60
2014,07,02,14,53,24.50
2014,07,02,14,54,24.50
2014,07,02,14,55,24.50
2014,07,02,14,56,24.50
2014,07,02,14,57,24.40
2014,07,02,14,58,24.30
2014,07,02,14,59,24.20
2014,07,02,15,00,24.20
2014,07,02,15,01,24.30
2014,07,02,15,02,24.30
2014,07,02,15,03,24.40
2014,07,02,15,04,24.40
2014,07,02,15,05,24.40
2014,07,02,15,06,24.40
2014,07,02,15,07,24.30
2014,07,02,15,08,24.20
2014,07,02,15,09,24.20
2014,07,02,15,10,24.10
2014,07,02,15,11,24.10
2014,07,02,15,12,24.10
2014,07,02,15,13,24.10
2014,07,02,15,14,24.10
2014,07,02,15,15,24.00
2014,07,02,15,16,23.90
2014,07,02,15,17,23.80
2014,07,02,15,18,23.80
2014,07,02,15,19,23.80
2014,07,02,15,20,23.80
2014,07,02,15,21,23.80
2014,07,02,15,22,23.80
2014,07,02,15,23,23.80
2014,07,02,15,24,23.90
2014,07,02,15,25,24.00
2014,07,02,15,26,24.00
2014,07,02,15,27,24.10
2014,07,02,15,28,24.10
2014,07,02,15,29,24.20
2014,07,02,15,30,24.20
2014,07,02,15,31,24.10
2014,07,02,15,32,24.10
2014,07,02,15,33,24.10
2014,07,02,15,34,24.00
2014,07,02,15,35,24.00
2014,07,02,15,36,24.00
2014,07,02,15,37,24.10
2014,07,02,15,38,24.10
2014,07,02,15,39,24.00
2014,07,02,15,40,24.00
2014,07,02,15,41,24.00
2014,07,02,15,42,24.10
2014,07,02,15,43,24.10
2014,07,02,15,44,24.20
2014,07,02,15,45,24.20
2014,07,02,15,46,24.20
2014,07,02,15,47,24.20
2014,07,02,15,48,24.20
2014,07,02,15,49,24.30
2014,07,02,15,50,24.30
2014,07,02,15,51,24.30
2014,07,02,15,52,24.30
2014,07,02,15,53,24.30
2014,07,02,15,54,24.30
2014,07,02,15,55,24.30
2014,07,02,15,56,24.30
2014,07,02,15,57,24.30
2014,07,02,15,58,24.30
2014,07,02,15,59,24.30
2014,07,02,16,00,24.30
2014,07,02,16,01,24.20
2014,07,02,16,02,24.10
2014,07,02,16,03,24.10
2014,07,02,16,04,24.10
2014,07,02,16,05,24.20
2014,07,02,16,06,24.30
2014,07,02,16,07,24.40
2014,07,02,16,08,24.40
2014,07,02,16,09,24.40
2014,07,02,16,10,24.30
2014,07,02,16,11,24.30
2014,07,02,16,12,24.30
2014,07,02,16,13,24.30
2014,07,02,16,14,24.30
2014,07,02,16,15,24.20
2014,07,02,16,16,24.20
2014,07,02,16,17,24.20
2014,07,02,16,18,24.30
2014,07,02,16,19,24.30
2014,07,02,16,20,24.40
2014,07,02,16,21,24.40
2014,07,02,16,22,24.40
2014,07,02,16,23,24.40
2014,07,02,16,24,24.40
2014,07,02,16,25,24.30
2014,07,02,16,26,24.30
2014,07,02,16,27,24.20
2014,07,02,16,28,24.10
2014,07,02,16,29,24.00
2014,07,02,16,30,24.00
2014,07,02,16,31,23.90
2014,07,02,16,32,23.90
2014,07,02,16,33,23.90
2014,07,02,16,34,23.90
2014,07,02,16,35,23.90
2014,07,02,16,36,23.90
2014,07,02,16,37,23.90
2014,07,02,16,38,24.00
2014,07,02,16,39,24.00
2014,07,02,16,40,24.00
2014,07,02,16,41,23.90
2014,07,02,16,42,23.70
2014,07,02,16,43,23.70
2014,07,02,16,44,23.60
2014,07,02,16,45,23.60
2014,07,02,16,46,23.70
2014,07,02,16,47,23.70
2014,07,02,16,48,23.70
2014,07,02,16,49,23.70
2014,07,02,16,50,23.70
2014,07,02,16,51,23.70
2014,07,02,16,52,23.70
2014,07,02,16,53,23.80
2014,07,02,16,54,23.80
2014,07,02,16,55,23.80
2014,07,02,16,56,23.90
2014,07,02,16,57,23.90
2014,07,02,16,58,23.90
2014,07,02,16,59,23.80
2014,07,02,17,00,23.80
2014,07,02,17,01,23.80
2014,07,02,17,02,23.80
2014,07,02,17,03,23.80
2014,07,02,17,04,23.80
2014,07,02,17,05,23.80
2014,07,02,17,06,23.70
2014,07,02,17,07,23.70
2014,07,02,17,08,23.70
2014,07,02,17,09,23.80
2014,07,02,17,10,23.80
2014,07,02,17,11,23.80
2014,07,02,17,12,23.70
2014,07,02,17,13,23.70
2014,07,02,17,14,23.80
2014,07,02,17,15,23.80
2014,07,02,17,16,23.80
2014,07,02,17,17,23.70
2014,07,02,17,18,23.70
2014,07,02,17,19,23.70